Flag for Canada Weather past 2 weeks in Eureka, Nunavut Territory, Canada

Now
-36 °F

Clear.


Feels Like: -65 °F
Forecast: -35 / -29 °F
Wind: 14 mph from Southeast

Location: Eureka

Current Time: Dec 25, 2014 at 7:45:00 PM

Latest Report: Dec 25, 2014 at 7:00 PM


Visibility: 15 mi

Pressure: 30.38 "Hg

Humidity: 59%

Dew point: -45 °F

Location of EurekaLocation

Historic Weather in Eureka — Graph

°F

Eureka temperature yesterday

Maximum temperature yesterday: -40 °F (at 3:00 AM)
Minimum temperature yesterday: -44 °F (at 5:00 AM)
Average temperature yesterday: -42 °F

Past Weeks' High & Low Weather Summary

 TemperatureHumidityPressure
High-6 °F (Dec 18, 12:00 PM)90% (Dec 21, 2:00 AM)30.41 "Hg (Dec 21, 2:00 AM)
Low-44 °F (Dec 23, 8:00 PM)51% (Dec 18, 9:00 AM)29.71 "Hg (Dec 16, 10:00 AM)
Average-35 °F67%30.10 "Hg
* Reported Dec 10 6:00 PM — Dec 25 6:00 PM, Eureka, Weather by CustomWeather, © 2014

Note: Actual official high and low records may vary slightly from our data, if they occured in-between our weather recording intervals... More about our weather records

Advertising

Eureka weather history for previous 24 hours

 ConditionsComfort  
Time TempWeatherWind HumidityBarometerVisibility
6:00 PM
Dec 25
-36 °FSunny.14 mph66%30.37 "Hg15 mi
5:00 PM-40 °FSunny.14 mph65%30.37 "Hg15 mi
4:00 PM-38 °FSunny.14 mph65%30.37 "Hg15 mi
3:00 PM-36 °FSunny.8 mph59%30.35 "Hg15 mi
2:00 PM-42 °FSunny.12 mph65%30.33 "Hg15 mi
1:00 PM-44 °FSunny.10 mph72%30.33 "Hg15 mi
12:00 PM-42 °FSunny.8 mph72%30.32 "Hg15 mi
11:00 AM-44 °FSunny.8 mph72%30.32 "Hg15 mi
9:00 AM-42 °FSunny.2 mph72%30.30 "Hg15 mi
8:00 AM-42 °FSunny.5 mph72%30.31 "Hg10 mi
7:00 AM-42 °FSunny.7 mph72%30.30 "Hg10 mi
6:00 AM-44 °FSunny.5 mph72%30.30 "Hg8 mi
5:00 AM-42 °FClear.6 mph72%30.30 "Hg8 mi
4:00 AM-40 °FClear.No wind72%30.30 "Hg15 mi
3:00 AM-42 °FClear.2 mph72%30.30 "Hg15 mi
2:00 AM-42 °FClear.5 mph65%30.29 "Hg10 mi
1:00 AM-40 °FClear.No wind72%30.28 "Hg10 mi
12:00 AM-42 °FSunny.5 mph65%30.28 "Hg8 mi
11:00 PM
Dec 24
-40 °FClear.2 mph65%30.28 "Hg8 mi
10:00 PM-44 °FClear.No wind72%30.29 "Hg15 mi
9:00 PM-44 °FClear.5 mph80%30.28 "Hg15 mi
8:00 PM-40 °FClear.2 mph65%30.28 "Hg15 mi
7:00 PM-40 °FClear.2 mph65%30.29 "Hg15 mi
Weather by CustomWeather, © 2014

See weather overviewHow to use our weather pages